Regional Weather Roundup
Issued by NWS

Home | Current Version | Previous Version | Graphics & Text | Print | Product List | Glossary On
Versions: 1 2 3 4 5 6 7 8 9 10 11 12 13 14 15 16 17 18 19 20 21 22 23 24 25 26 27 28 29 30 31 32 33 34 35 36 37 38 39 40 41 42 43 44 45 46 47 48
000
ASUS45 KBOU 221007
RWRCO

WEATHER ROUNDUP FOR COLORADO
NATIONAL WEATHER SERVICE DENVER/BOULDER CO
400 AM MDT MON SEP 22 2014

NOTE: "FAIR" INDICATES FEW OR NO CLOUDS BELOW 12000 FEET WITH NO
SIGNIFICANT WEATHER AND/OR OBSTRUCTIONS TO VISIBILITY.

COZ001>005-013-030-031-221100-
...NORTHWEST COLORADO...

CITY           SKY/WX    TMP DP  RH WIND       PRES   REMARKS
CRAIG          MOCLDY    55  50  83 CALM      30.26R
HAYDEN         MOCLDY    54  48  82 E12       30.27S
MEEKER         MOCLDY    53  50  89 NE3       30.26S
MOUNT WERNER   NOT AVBL
STEAMBOAT SPGS CLOUDY    51  49  93 CALM      30.29F
WALDEN         MOCLDY    46  43  87 E3        30.37R
$$

COZ006>008-011-221100-
...WEST CENTRAL VALLEYS...

CITY           SKY/WX    TMP DP  RH WIND       PRES   REMARKS
GRAND JUNCTION MOCLDY    62  57  83 SE13G22   30.18S
MONTROSE       LGT RAIN  60  57  89 CALM      30.28F
EAGLE          CLOUDY    55  55 100 CALM      30.35F
RIFLE          LGT RAIN  59  57  93 SE3       30.25S
DELTA          RAIN      62  59  88 NE10      30.25F
NUCLA          CLOUDY    57  55  94 SE5       30.31S
$$

COZ017>023-064>068-221100-
...SOUTHWEST COLORADO...

CITY           SKY/WX    TMP DP  RH WIND       PRES   REMARKS
DURANGO        HVY RAIN  58  57  97 W7        30.34R FOG
CORTEZ         CLOUDY    60  58  92 NE6       30.27S
PAGOSA SPRINGS CLOUDY    58  48  70 CALM      30.40S
TELLURIDE      NOT AVBL
WOLF CREEK PAS HVY SNOW  41  41 100 SW16G28   30.61F VSB<1/4
$$

COZ009-010-012-014-032>034-037-058>063-221100-
...CENTRAL COLORADO...

CITY           SKY/WX    TMP DP  RH WIND       PRES   REMARKS
ASPEN          RAIN      53  51  93 SE3       30.38S FOG
BUENA VISTA    RAIN      53  50  92 E3        30.41S
COPPER MTN     CLOUDY    45  39  81 S8        30.61F
BERTHOUD PASS  CLOUDY    37  36  93 W7        30.64S
COTTONWOOD PAS RAIN      50  48  93 NW3       30.50S
GUNNISON       CLOUDY    54  48  82 N7        30.40F
KREMMLING      DRIZZLE   50  48  93 CALM      30.39S
LEADVILLE      LGT RAIN  47  47 100 SW5       30.48S
MONARCH PASS   FOG       43  41  93 SW16      30.73S VSB<1/4
SALIDA         CLOUDY    55  51  85 SE6       30.46S
SUNLIGHT       LGT RAIN  46  46 100 CALM      30.55R
WILKERSON PASS NOT AVBL
$$

COZ069>075-221100-
...SAN LUIS VALLEY/SANGRE DE CRISTO MOUNTAINS...

CITY           SKY/WX    TMP DP  RH WIND       PRES   REMARKS
ALAMOSA        CLOUDY    59  49  69 S15       30.38F
LA VETA PASS   MOCLDY    45  43  93 S8        30.54F
SAGUACHE       NOT AVBL
$$

COZ035-036-038>040-221100-
...NORTHERN COLORADO FRONT RANGE...

CITY           SKY/WX    TMP DP  RH WIND       PRES   REMARKS
DENVER INTL AP CLOUDY    60  46  59 S15       30.21F
DMNS CITY PARK   N/A     62  47  58 S12       30.20S
AURORA         MOCLDY    59  46  60 S21       30.23F
FRONT RANGE AP CLOUDY    59  46  63 S8        30.23F
ERIE MUNI ARPT NOT AVBL
BOULDER MUN AP CLOUDY    55  54  94 CALM      30.21R
CENTENNIAL     CLOUDY    59  45  59 S17G23    30.25F
BROOMFIELD     CLOUDY    59  54  82 S3        30.23S
FORT COLLINS   CLOUDY    55  45  67 N7        30.22F
LONGMONT       CLOUDY    60  54  81 N8        30.21F
$$

COZ041-046-047-076>085-087-088-221100-
...PIKES PEAK/PALMER DIVIDE AND SOUTHERN FOOTHILLS...

CITY           SKY/WX    TMP DP  RH WIND       PRES   REMARKS
COLO. SPRINGS  CLOUDY    58  42  55 SE8       30.34F
A. F. ACADEMY  CLOUDY    57  42  57 SE10      30.34F
ELLICOTT       NOT AVBL
FALCON         CLOUDY    54  42  64 SE10      30.37F
FORT CARSON    CLOUDY    59  44  57 S5        30.32F
LIMON          MOCLDY    51  39  63 SE12      30.31F
MONUMENT HILL  MOCLDY    52  43  71 S17G24    30.32F
TRINIDAD       LGT RAIN  60  54  80 SW17      30.31F
$$

COZ042>045-048>051-090-091-221100-
...NORTHEAST COLORADO...

CITY           SKY/WX    TMP DP  RH WIND       PRES   REMARKS
GREELEY ARPT   CLOUDY    59  41  51 SE7       30.21F
AKRON          PTCLDY    57  40  52 S21       30.26F
BURLINGTON     PTCLDY    56  40  55 S13       30.30F
WRAY           CLOUDY    62  40  44 SE8       30.28F
STERLING       PTCLDY    59  45  58 S7        30.23S
HOLYOKE        PTCLDY    59  43  55 S8        30.27S
FORT MORGAN    MOCLDY    55  40  57 SE7       30.24F
$$

COZ086-089-092>099-221100-
...SOUTHEAST COLORADO...

CITY           SKY/WX    TMP DP  RH WIND       PRES   REMARKS
PUEBLO         CLOUDY    61  47  59 E8        30.25F
LA JUNTA       MOCLDY    60  46  59 E9        30.26F
LAMAR          MOCLDY    54  43  66 E7        30.28S
SPRINGFIELD      N/A     60  50  69 S14       30.32F
$$



USA.gov is the U.S. government's official web portal to all federal, state and local government web resources and services.